Helicity
82 60 46 53 86 103 81 132 77 69 22 -39 -20 -50 93 101 78 57 92 118 119 72 81 109 152 168 141 179 178 202 182 150 143 169 147 106 107 135 120 81 62 56 66 74
56 55 68 85 86 108 108 167 140 57 1 17 8 -23 15 94 94 96 94 108 114 114 114 99 117 171 128 245 250 235 233 142 127 123 176 205 193 183 188 166 133 56 84 86
92 76 53 80 87 94 138 136 148 98 54 54 51 11 80 99 117 125 120 127 109 95 127 107 100 175 220 241 308 267 251 95 101 73 193 235 263 283 246 239 227 155 113 64
77 81 71 73 102 83 69 120 82 73 86 53 45 47 -0 105 98 97 133 168 163 151 103 83 79 144 217 238 342 323 211 176 186 306 213 221 288 385 349 372 387 382 276 55
79 64 63 73 125 108 139 131 46 69 98 97 78 37 21 43 64 147 169 148 201 204 113 78 69 110 159 256 319 281 246 208 370 325 275 299 330 461 539 470 431 206 59 29
84 57 82 98 112 79 119 123 61 46 80 63 71 54 36 49 47 91 102 127 179 223 104 60 55 95 150 213 228 269 298 293 400 383 387 371 401 536 429 280 173 58 -31 -59
46 52 61 79 79 66 43 50 2 30 48 107 124 59 95 101 62 3 86 100 180 168 144 85 92 96 139 190 225 239 291 340 357 424 330 376 424 113 53 119 54 30 -22 -21
58 33 74 63 108 120 82 67 71 70 80 114 114 147 146 59 42 94 101 155 154 145 190 152 129 129 173 197 178 163 216 269 288 410 474 440 229 39 -88 -118 45 53 54 52
59 63 54 84 63 82 78 83 73 101 158 101 151 167 357 124 204 105 146 204 227 202 168 137 165 148 114 147 134 152 168 143 180 210 292 61 8 92 36 42 100 140 74 66
69 58 64 70 64 54 74 73 80 74 92 65 113 212 216 160 205 138 136 228 222 187 196 169 163 158 179 149 132 116 122 125 118 -13 -17 -14 70 87 90 70 43 37 63 101
87 94 55 55 61 71 54 64 89 108 124 114 137 137 176 189 105 194 105 138 186 180 168 151 181 168 127 184 202 153 87 85 73 165 109 97 71 48 49 53 56 55 86 104
62 84 96 88 63 41 67 78 92 112 96 130 150 94 93 118 137 166 119 103 101 87 134 118 139 179 155 97 113 149 146 138 139 113 102 85 70 75 89 84 110 128 152 178
73 61 55 51 53 38 58 67 79 92 104 98 98 96 79 71 72 73 86 28 86 44 67 54 78 95 92 94 92 107 126 117 108 98 93 102 123 144 173 178 173 176 195 222
61 77 102 108 87 61 52 52 68 71 81 82 100 78 53 29 39 40 40 39 -21 14 43 84 69 56 69 70 65 73 78 67 76 121 144 151 146 150 163 174 186 195 192 200
74 61 81 90 74 69 78 79 53 74 76 85 56 68 48 31 27 28 32 23 -5 1 35 15 7 9 9 34 43 55 68 84 93 136 152 148 149 163 178 192 190 192 210 213
71 54 57 61 58 61 37 58 47 59 65 66 60 40 49 28 24 16 17 19 9 -5 -7 -11 -11 -4 12 27 46 67 81 96 103 115 111 105 122 130 134 137 145 160 167 175
71 80 61 44 45 18 30 55 56 44 50 54 58 44 33 36 35 20 13 20 16 5 3 2 6 12 17 32 40 67 60 57 85 79 69 80 87 105 118 127 141 153 164 164
136 103 84 53 56 75 56 33 37 46 38 52 27 25 33 7 -0 9 7 21 21 20 17 11 18 23 31 39 68 76 82 91 92 94 98 102 111 122 125 140 147 137 131 131
137 134 103 78 61 40 35 62 72 70 34 63 43 33 14 21 -7 -28 18 19 23 26 29 33 33 33 50 65 71 100 102 91 97 95 96 96 106 114 113 121 112 103 103 97
179 167 144 110 75 42 52 42 62 63 31 45 54 41 40 30 18 7 6 30 54 64 74 81 72 77 90 72 87 118 97 101 97 76 84 95 106 115 115 105 102 103 106 101
135 130 135 147 112 48 55 73 82 90 51 53 48 42 73 47 30 12 31 48 69 97 114 108 112 114 104 96 113 127 111 107 73 85 102 119 123 122 112 106 107 112 117 129
109 123 114 155 157 59 72 135 113 58 60 52 47 45 57 47 39 37 42 66 112 154 152 147 173 150 134 131 148 131 120 81 98 118 127 129 121 113 107 114 112 125 133 126
120 129 127 135 117 100 79 54 50 58 57 55 62 55 57 71 54 63 62 89 114 145 159 152 185 182 162 159 141 145 89 97 119 131 129 111 109 105 103 111 114 119 123 122
152 162 159 127 115 134 56 30 29 72 61 62 61 68 79 66 72 77 97 109 144 158 163 162 196 198 197 179 160 130 105 115 130 129 107 96 96 103 91 95 108 114 114 105
196 209 190 144 105 158 113 116 58 56 77 78 89 86 90 109 89 99 106 118 132 152 165 169 182 200 195 181 164 126 115 121 124 105 93 94 90 82 76 85 84 95 96 100
415 350 330 206 153 180 110 88 87 88 73 66 109 117 116 110 101 109 104 119 152 164 177 182 186 216 191 172 152 123 109 116 103 105 89 81 81 70 74 73 75 73 75 62
Wind_Speed
44 47 37 27 34 22 18 18 11 12 10 12 14 29 77 77 72 68 68 71 70 66 63 60 52 50 49 40 35 31 29 32 35 34 33 29 24 22 15 13 12 11 5 6
45 47 43 36 31 31 25 25 25 25 30 30 25 20 23 71 74 70 69 68 70 68 65 61 49 45 45 41 38 38 33 35 30 26 47 45 40 32 23 16 15 16 10 9
40 37 40 45 34 44 46 36 37 28 36 33 53 32 42 42 56 58 56 63 66 68 71 66 55 44 40 39 38 32 35 32 20 34 34 29 32 27 25 25 26 25 22 16
35 36 37 44 44 43 51 51 31 42 61 53 59 44 40 56 53 51 61 65 70 71 67 67 60 48 39 37 38 37 33 39 31 22 26 34 33 29 29 26 26 23 25 24
39 36 40 43 53 48 42 16 38 47 60 51 56 44 37 44 56 63 67 65 67 70 68 65 54 43 41 39 34 33 32 37 30 26 28 29 29 30 33 34 26 26 24 17
30 31 38 38 34 49 34 49 38 47 59 71 55 49 39 43 12 28 59 56 57 60 53 52 48 41 38 37 35 33 26 29 27 24 31 33 30 29 32 31 27 23 7 7
37 36 40 40 44 44 63 63 56 56 62 63 62 51 30 22 10 42 38 38 37 36 34 34 38 36 31 30 30 31 30 31 25 25 27 33 38 24 23 14 19 15 9 5
49 48 46 42 44 43 51 55 54 54 56 53 49 60 39 20 16 17 31 24 20 19 21 22 27 27 26 26 24 26 25 23 24 23 13 19 14 21 16 23 18 2 3 8
45 38 34 37 39 45 44 51 44 43 43 48 49 47 51 41 14 17 20 15 14 15 17 18 20 24 22 21 19 18 19 21 18 17 25 11 15 16 24 25 23 5 8 9
38 36 35 35 38 47 48 44 48 49 57 50 48 55 51 47 11 12 16 16 13 15 17 19 19 18 16 16 14 15 19 21 19 19 23 15 17 16 13 15 15 15 12 7
36 35 33 35 40 39 41 46 46 42 45 45 44 51 40 43 45 25 11 14 15 17 19 19 19 18 16 17 17 16 20 23 18 29 24 22 23 26 25 21 18 16 14 12
32 33 34 29 27 29 36 42 43 43 40 38 39 38 36 46 49 45 11 14 20 20 19 22 22 21 21 22 22 22 24 23 24 28 30 32 32 30 28 26 24 22 19 19
29 32 38 38 36 37 38 35 37 35 38 37 43 39 41 44 45 41 25 8 16 20 18 21 20 23 23 21 24 24 26 27 29 33 35 35 34 32 32 30 28 27 26 26
27 28 28 25 22 26 20 9 27 30 33 30 31 25 32 48 42 40 40 33 19 11 19 25 20 21 25 30 35 33 35 35 35 36 36 35 35 34 33 32 32 32 32 32
30 27 25 14 4 7 4 6 12 23 24 28 28 30 30 39 43 42 45 47 52 30 25 19 22 24 28 31 34 34 33 33 33 33 34 34 35 36 36 36 37 38 40 41
32 30 35 25 26 25 12 11 16 20 23 19 23 23 32 36 40 41 43 44 46 44 39 36 34 36 35 34 33 33 34 34 34 35 35 35 36 37 38 39 41 44 45 46
35 31 37 31 31 24 20 20 21 25 25 25 24 26 31 33 35 36 36 37 37 38 37 36 35 34 33 33 33 33 33 33 35 36 36 37 38 41 43 44 47 50 52 53
27 30 31 27 37 22 23 23 21 19 20 21 22 23 26 29 31 31 31 32 32 30 30 29 31 31 32 32 33 33 34 36 38 39 40 42 44 47 48 50 52 51 52 54
17 24 31 28 27 27 21 16 18 21 19 16 20 24 26 29 30 27 25 26 27 27 27 27 28 29 30 31 31 33 36 36 38 40 42 44 45 46 48 49 50 52 54 57
24 30 30 32 31 24 29 22 23 25 18 18 19 21 22 25 26 26 22 20 22 23 24 24 26 28 29 30 31 34 35 37 40 43 45 47 47 48 49 50 52 54 58 60
31 31 27 26 29 26 13 17 22 19 22 19 17 17 17 17 19 27 24 19 18 20 21 22 25 26 28 29 30 34 35 39 42 45 47 49 49 49 51 52 55 59 62 62
30 32 34 32 30 32 18 18 12 21 27 19 18 15 11 12 20 22 20 16 16 18 19 20 23 25 28 29 30 33 37 41 44 47 49 50 50 52 54 57 60 61 63 63
40 30 37 23 31 22 13 9 18 27 22 17 19 18 17 17 17 16 15 13 13 15 18 19 20 24 28 29 30 34 38 41 45 48 49 50 52 55 58 61 63 63 63 65
36 29 39 41 33 16 15 12 10 11 8 21 21 21 18 20 16 12 10 9 10 11 13 16 20 22 26 29 32 35 38 41 45 47 48 50 53 57 60 61 60 61 64 64
37 29 39 47 39 25 19 14 11 13 16 22 21 21 21 18 13 8 5 5 6 8 10 13 16 20 23 27 32 35 39 41 45 45 47 50 53 57 61 62 60 60 56 54
37 38 41 49 37 30 33 34 33 21 19 16 18 23 22 14 11 6 1 3 6 7 8 10 14 18 21 26 32 37 40 41 42 44 46 50 53 57 61 62 62 58 56 56
Wind_Direction
38 35 43 49 40 49 35 22 341 303 276 345 304 251 291 286 282 279 275 270 268 267 265 260 254 251 243 247 244 236 230 236 238 245 246 251 239 249 244 219 214 227 204 180
39 42 38 37 38 34 27 16 16 18 6 350 337 315 257 293 282 276 273 271 267 266 265 261 254 245 237 238 244 242 231 235 232 244 259 259 255 262 260 253 248 253 237 206
44 46 41 31 34 27 25 32 26 8 18 24 0 4 348 343 299 286 280 272 269 265 262 261 255 245 237 223 230 227 225 214 242 261 258 258 259 264 260 260 263 271 270 258
48 46 40 34 35 32 22 22 27 31 25 29 19 18 26 4 313 291 283 275 266 262 262 261 256 249 239 225 234 234 229 227 266 246 242 247 253 240 261 257 262 269 272 268
43 45 38 38 28 29 28 348 44 40 30 38 31 31 36 27 321 295 285 280 268 258 257 258 256 251 244 244 237 229 233 233 249 252 240 241 255 256 268 268 267 272 261 256
49 50 47 43 35 33 31 28 41 39 34 32 37 41 44 34 313 263 295 281 268 255 257 256 254 253 252 249 248 247 237 242 253 250 262 261 255 271 272 283 275 273 164 203
43 49 45 47 38 42 29 34 24 24 28 32 37 46 49 21 13 35 283 282 269 256 262 260 252 254 255 251 253 258 263 266 270 276 271 273 283 292 307 292 267 283 289 183
34 36 40 41 44 41 42 44 45 35 34 37 48 39 40 31 303 299 311 286 274 273 274 278 262 262 259 257 262 270 278 286 284 290 292 276 282 306 323 281 298 142 272 165
32 40 47 48 50 47 48 46 54 53 51 46 49 52 56 44 75 307 316 308 303 292 288 300 289 272 268 264 272 283 292 301 303 303 312 331 312 292 302 305 320 302 128 133
35 36 48 47 58 50 53 57 50 50 42 48 50 52 48 48 61 312 311 321 305 311 322 325 312 301 303 301 315 319 323 322 317 70 332 335 341 343 55 92 90 90 92 68
34 39 42 47 49 50 53 52 52 56 57 52 49 52 56 58 65 106 272 305 303 322 331 333 347 333 335 338 327 335 334 349 334 323 346 360 38 71 67 55 54 49 49 46
39 36 32 44 57 67 61 54 55 55 52 59 61 63 66 67 73 88 185 296 317 325 328 350 359 351 349 360 0 358 5 6 4 19 32 42 51 51 49 44 39 37 36 26
36 36 29 41 50 53 52 55 53 61 59 62 60 65 66 73 80 95 129 231 293 334 330 360 5 8 5 6 19 18 19 22 27 39 44 44 43 41 40 36 33 27 20 10
41 39 36 35 38 36 44 49 56 64 65 63 70 77 73 60 82 93 101 120 344 319 357 17 11 10 22 32 42 39 42 41 43 43 43 41 38 36 31 25 19 13 8 360
30 27 28 29 12 27 54 67 69 69 76 75 66 69 75 69 72 88 95 96 89 25 15 7 17 21 28 36 40 41 37 35 33 30 25 21 20 19 16 11 6 3 359 354
20 17 11 24 37 43 50 53 77 77 78 91 85 77 63 66 68 72 68 73 66 58 46 42 39 46 42 40 36 33 29 24 24 22 20 19 16 12 8 5 1 358 354 349
359 11 8 18 24 27 34 56 62 60 69 78 82 81 65 58 55 67 70 73 68 71 65 56 52 47 41 37 34 28 24 25 21 18 15 12 8 4 1 360 356 351 348 345
1 5 8 11 8 27 44 42 48 59 61 76 76 84 80 67 63 71 76 78 76 68 62 53 50 40 35 31 27 25 18 12 9 5 360 357 355 355 355 354 352 352 351 348
2 3 1 9 10 3 13 49 44 37 45 70 69 71 70 57 41 53 73 78 78 78 73 62 48 34 29 27 24 21 17 10 7 5 0 359 360 359 357 355 354 352 349 347
6 356 354 359 360 10 17 41 24 22 27 49 57 64 71 60 63 54 49 62 67 71 71 60 42 34 30 29 24 17 11 8 5 357 356 357 357 357 356 355 353 351 348 346
348 343 338 345 347 348 5 26 20 17 18 39 41 42 55 63 52 21 28 44 61 68 67 58 52 42 37 32 28 17 14 6 359 356 357 357 358 358 358 356 353 350 348 347
336 338 338 342 343 342 20 28 20 11 1 10 9 17 33 32 15 13 22 46 70 71 65 58 49 38 34 31 25 17 5 359 358 358 359 360 1 0 358 355 353 352 351 350
319 326 331 335 338 356 21 35 6 349 354 356 350 355 358 1 6 20 32 54 60 71 70 60 44 33 30 29 24 12 1 1 0 1 2 4 3 1 359 357 356 355 354 351
312 319 321 326 333 288 244 242 273 318 319 333 331 332 337 340 353 12 29 52 72 63 60 50 49 30 23 27 20 13 7 5 5 5 6 5 5 3 2 1 1 359 357 356
306 315 311 312 316 311 283 286 277 297 302 311 316 318 318 327 335 352 27 72 92 84 54 50 43 41 25 26 20 13 9 9 7 9 9 9 8 6 4 5 6 5 6 5
292 293 298 310 319 324 328 328 313 279 266 271 295 307 311 313 320 326 360 121 126 114 77 53 38 38 32 21 13 9 8 9 12 11 12 11 10 8 8 9 9 10 10 6